FW8165 Weather Reports


time (UTC)temp
C
wind
direction
speed
KPH
gust
KPH
rain 1hr
cm
rain 24hr
cm
rain mn
cm
humidity
%
barometer
mb
20260507001254 23 80 6.4 8.0 0.00 0.00 0.00 76 1014.2
20260507000750 23 222 0.0 0.0 0.00 0.00 0.00 76 1014.2
20260507000246 23 341 0.0 0.0 0.00 0.00 0.00 75 1014.2
20260506235743 24 211 3.2 3.2 0.00 0.00 0.00 75 1013.9
20260506235238 24 96 4.8 6.4 0.00 0.00 0.00 74 1013.9
20260506234736 24 60 4.8 4.8 0.00 0.00 0.00 74 1013.9
20260506234233 24 349 0.0 0.0 0.00 0.00 0.00 74 1013.9
20260506233730 24 107 3.2 3.2 0.00 0.00 0.00 73 1013.9
20260506233227 24 210 0.0 0.0 0.00 0.00 0.00 73 1013.9
20260506232724 25 215 0.0 0.0 0.00 0.00 0.00 72 1013.9
20260506232218 25 136 0.0 0.0 0.00 0.00 0.00 70 1013.9
20260506231716 25 254 1.6 1.6 0.00 0.00 0.00 69 1013.9
20260506231214 25 311 3.2 3.2 0.00 0.00 0.00 69 1014.2
20260506230710 25 208 0.0 0.0 0.00 0.00 0.00 69 1014.2
20260506230207 25 277 0.0 0.0 0.00 0.00 0.00 69 1014.2
20260506225704 25 196 3.2 3.2 0.00 0.00 0.00 69 1013.9
20260506225201 25 255 4.8 4.8 0.00 0.00 0.00 68 1013.9
20260506224657 25 228 0.0 0.0 0.00 0.00 0.00 68 1013.9
20260506224154 26 180 0.0 0.0 0.00 0.00 0.00 69 1013.9
20260506223650 26 320 1.6 1.6 0.00 0.00 0.00 69 1013.9
20260506223146 26 228 3.2 3.2 0.00 0.00 0.00 69 1013.9
20260506222643 26 84 3.2 3.2 0.00 0.00 0.00 67 1013.9
20260506222139 26 125 4.8 6.4 0.00 0.00 0.00 67 1013.9
20260506221637 26 253 3.2 3.2 0.00 0.00 0.00 66 1013.9
20260506221135 26 84 0.0 0.0 0.00 0.00 0.00 66 1013.5
20260506220632 26 56 0.0 0.0 0.00 0.00 0.00 66 1013.5
20260506220127 26 0 0.0 0.0 0.00 0.00 0.00 64 1013.5
20260506215624 27 102 3.2 3.2 0.00 0.00 0.00 63 1013.9
20260506215119 27 192 3.2 3.2 0.00 0.00 0.00 63 1013.9
20260506214616 27 241 9.7 11.3 0.00 0.00 0.00 61 1013.9
20260506214114 27 335 3.2 3.2 0.00 0.00 0.00 61 1014.2
20260506213612 28 246 0.0 0.0 0.00 0.00 0.00 60 1013.9
20260506213109 28 246 0.0 0.0 0.00 0.00 0.00 60 1013.9
20260506212606 28 228 4.8 4.8 0.00 0.00 0.00 60 1013.9
20260506212100 27 178 3.2 3.2 0.00 0.00 0.00 61 1013.9
20260506211556 28 324 3.2 3.2 0.00 0.00 0.00 60 1013.9
20260506211054 28 251 3.2 3.2 0.00 0.00 0.00 58 1013.9
20260506210550 28 126 4.8 4.8 0.00 0.00 0.00 58 1013.9
20260506210047 28 137 1.6 1.6 0.00 0.00 0.00 58 1013.9
20260506205544 28 263 1.6 1.6 0.00 0.00 0.00 59 1013.9
20260506205039 28 258 4.8 4.8 0.00 0.00 0.00 58 1013.9
20260506204537 29 295 3.2 3.2 0.00 0.00 0.00 57 1014.2
20260506204034 29 122 4.8 6.4 0.00 0.00 0.00 58 1014.2
20260506203532 28 119 3.2 3.2 0.00 0.00 0.00 61 1014.2
20260506203028 28 184 1.6 1.6 0.00 0.00 0.00 61 1014.2
20260506202526 28 144 6.4 6.4 0.00 0.00 0.00 61 1014.2
20260506202022 28 199 4.8 4.8 0.00 0.00 0.00 62 1014.2
20260506201520 28 116 6.4 6.4 0.00 0.00 0.00 61 1014.5
20260506201016 28 108 3.2 3.2 0.00 0.00 0.00 61 1014.5
20260506200512 28 178 3.2 3.2 0.00 0.00 0.00 62 1014.5
20260506200009 28 324 3.2 3.2 0.00 0.00 0.00 61 1014.9
20260506195506 28 69 8.0 8.0 0.00 0.00 0.00 62 1014.9
20260506195003 29 173 4.8 4.8 0.00 0.00 0.00 61 1014.9
20260506194500 28 102 3.2 3.2 0.00 0.00 0.00 59 1014.5
20260506193956 29 240 4.8 4.8 0.00 0.00 0.00 57 1014.5
20260506193453 29 136 0.0 0.0 0.00 0.00 0.00 59 1014.5
20260506192945 29 246 4.8 4.8 0.00 0.00 0.00 57 1014.5
20260506192442 29 129 4.8 4.8 0.00 0.00 0.00 57 1014.5
20260506191938 29 139 3.2 3.2 0.00 0.00 0.00 58 1014.5
20260506191435 29 339 0.0 0.0 0.00 0.00 0.00 58 1015.2
20260506190931 29 269 4.8 4.8 0.00 0.00 0.00 55 1015.2
20260506190428 29 114 6.4 6.4 0.00 0.00 0.00 55 1015.2
20260506185925 30 90 4.8 6.4 0.00 0.00 0.00 52 1015.2
20260506185422 29 241 1.6 1.6 0.00 0.00 0.00 53 1015.2
20260506184919 29 59 4.8 6.4 0.00 0.00 0.00 50 1015.2
20260506184416 29 301 6.4 8.0 0.00 0.00 0.00 52 1015.9
20260506183914 29 262 4.8 4.8 0.00 0.00 0.00 53 1015.9
20260506183409 29 275 3.2 3.2 0.00 0.00 0.00 53 1015.9
20260506182906 29 294 3.2 3.2 0.00 0.00 0.00 54 1015.9
20260506182403 29 294 0.0 0.0 0.00 0.00 0.00 54 1015.9
20260506181900 29 280 3.2 3.2 0.00 0.00 0.00 52 1015.9
20260506181358 28 84 6.4 6.4 0.00 0.00 0.00 55 1015.9
20260506180855 28 136 6.4 6.4 0.00 0.00 0.00 55 1015.9
20260506180351 28 100 0.0 0.0 0.00 0.00 0.00 57 1015.9
20260506175848 28 241 4.8 4.8 0.00 0.00 0.00 57 1016.2
20260506175345 28 268 3.2 3.2 0.00 0.00 0.00 58 1016.2
20260506174842 28 324 6.4 6.4 0.00 0.00 0.00 60 1016.2
20260506174339 28 280 4.8 4.8 0.00 0.00 0.00 60 1016.6
20260506173837 28 339 3.2 3.2 0.00 0.00 0.00 61 1016.6
20260506173333 28 86 6.4 6.4 0.00 0.00 0.00 61 1016.6
20260506172830 27 38 3.2 3.2 0.00 0.00 0.00 63 1016.6
20260506172327 27 72 3.2 3.2 0.00 0.00 0.00 63 1016.6
20260506171824 27 227 3.2 3.2 0.00 0.00 0.00 62 1016.6
20260506171321 27 252 8.0 8.0 0.00 0.00 0.00 62 1016.6
20260506170819 27 192 0.0 0.0 0.00 0.00 0.00 61 1016.6
20260506170315 27 234 6.4 6.4 0.00 0.00 0.00 62 1016.6
20260506165814 28 204 4.8 4.8 0.00 0.00 0.00 60 1016.6
20260506165311 28 204 6.4 8.0 0.00 0.00 0.00 60 1016.6
20260506164808 27 217 6.4 8.0 0.00 0.00 0.00 61 1016.6
20260506164304 27 270 0.0 0.0 0.00 0.00 0.00 62 1016.6
20260506163801 28 80 8.0 8.0 0.00 0.00 0.00 61 1016.6
20260506163256 27 0 4.8 4.8 0.00 0.00 0.00 61 1016.6
20260506162752 27 6 3.2 3.2 0.00 0.00 0.00 61 1016.6
20260506162250 27 318 4.8 4.8 0.00 0.00 0.00 62 1016.6
20260506161747 27 232 4.8 4.8 0.00 0.00 0.00 62 1016.6
20260506161244 27 295 4.8 4.8 0.00 0.00 0.00 60 1016.9
20260506160742 27 276 6.4 6.4 0.00 0.00 0.00 62 1016.9
20260506160238 27 212 6.4 8.0 0.00 0.00 0.00 59 1016.9
20260506155737 27 270 3.2 3.2 0.00 0.00 0.00 62 1017.3
20260506155233 26 192 0.0 0.0 0.00 0.00 0.00 64 1017.3
20260506153341 26 226 8.0 8.0 0.00 0.00 0.00 65 1017.3
20260506152838 26 264 3.2 3.2 0.00 0.00 0.00 66 1016.9
20260506152335 27 300 0.0 0.0 0.00 0.00 0.00 64 1016.9
20260506151833 27 241 0.0 0.0 0.00 0.00 0.00 64 1016.9
20260506151330 26 336 3.2 3.2 0.00 0.00 0.00 65 1016.9
20260506150827 26 306 4.8 4.8 0.00 0.00 0.00 65 1016.9
20260506150324 26 168 4.8 4.8 0.00 0.00 0.00 64 1016.9
20260506145820 27 264 4.8 6.4 0.00 0.00 0.00 63 1016.9
20260506145317 26 177 0.0 0.0 0.00 0.00 0.00 64 1016.9
20260506144815 26 4 6.4 6.4 0.00 0.00 0.00 64 1016.9
20260506144311 26 36 4.8 4.8 0.00 0.00 0.00 63 1016.9
20260506143810 26 163 3.2 3.2 0.00 0.00 0.00 63 1016.9
20260506143306 25 266 6.4 6.4 0.00 0.00 0.00 65 1016.9
20260506142804 26 179 6.4 8.0 0.00 0.00 0.00 63 1016.6
20260506142305 25 335 3.2 3.2 0.00 0.00 0.00 64 1016.6
20260506141800 25 264 3.2 3.2 0.00 0.00 0.00 64 1016.6
20260506141258 25 199 3.2 3.2 0.00 0.00 0.00 65 1016.9
20260506140755 25 81 0.0 0.0 0.00 0.00 0.00 67 1016.9
20260506140252 25 328 4.8 4.8 0.00 0.00 0.00 67 1016.9
20260506135749 25 96 3.2 3.2 0.00 0.00 0.00 67 1016.6
20260506135245 25 344 1.6 1.6 0.00 0.00 0.00 67 1016.6
20260506134742 24 193 6.4 6.4 0.00 0.00 0.00 67 1016.6
20260506134239 24 227 6.4 8.0 0.00 0.00 0.00 69 1016.2
20260506133736 24 210 3.2 3.2 0.00 0.00 0.00 70 1016.2
20260506133232 23 252 3.2 3.2 0.00 0.00 0.00 73 1016.2
20260506132729 23 102 0.0 0.0 0.00 0.00 0.00 73 1016.6
20260506132226 23 253 0.0 0.0 0.00 0.00 0.00 74 1016.6
20260506131725 23 92 3.2 3.2 0.00 0.00 0.00 74 1016.6
20260506131220 23 0 3.2 3.2 0.00 0.00 0.00 76 1016.6
20260506130717 22 18 3.2 3.2 0.00 0.00 0.00 78 1016.6
20260506130214 22 197 0.0 0.0 0.00 0.00 0.00 78 1016.6
20260506125712 22 53 3.2 3.2 0.00 0.00 0.00 78 1016.2
20260506125210 22 114 0.0 0.0 0.00 0.00 0.00 80 1016.2
20260506124708 22 300 3.2 3.2 0.00 0.00 0.00 81 1016.2
20260506124206 21 294 0.0 0.0 0.00 0.00 0.00 83 1016.2
20260506123702 21 277 4.8 4.8 0.00 0.00 0.00 84 1016.2
20260506123202 21 256 0.0 0.0 0.00 0.00 0.00 86 1016.2
20260506122658 21 138 3.2 3.2 0.00 0.00 0.00 86 1016.2
20260506122155 20 264 0.0 0.0 0.00 0.00 0.00 88 1016.2
20260506121653 20 190 4.8 4.8 0.00 0.00 0.00 89 1016.2
20260506121149 19 181 1.6 1.6 0.00 0.00 0.00 92 1016.2
20260506120647 18 186 4.8 4.8 0.00 0.00 0.00 95 1016.2
20260506120144 18 126 0.0 0.0 0.00 0.00 0.00 97 1016.2
20260506115643 18 186 0.0 0.0 0.00 0.00 0.00 98 1015.9
20260506115140 17 186 0.0 0.0 0.00 0.00 0.00 99 1015.9
20260506114637 17 222 0.0 0.0 0.00 0.00 0.00 99 1015.9
20260506114135 16 195 0.0 0.0 0.00 0.00 0.00 99 1015.9
20260506113634 16 196 0.0 0.0 0.00 0.00 0.00 99 1015.9
20260506113130 16 195 0.0 0.0 0.00 0.00 0.00 99 1015.9
20260506112626 16 207 0.0 0.0 0.00 0.00 0.00 99 1015.9
20260506112124 16 239 0.0 0.0 0.00 0.00 0.00 99 1015.9
20260506111622 16 231 0.0 0.0 0.00 0.00 0.00 99 1015.9
20260506111119 15 231 0.0 0.0 0.00 0.00 0.00 99 1015.9
20260506110616 15 231 0.0 0.0 0.00 0.00 0.00 99 1015.9
20260506110114 15 231 0.0 0.0 0.00 0.00 0.00 99 1015.9
20260506105610 15 231 0.0 0.0 0.00 0.00 0.00 99 1015.9
20260506105107 15 230 0.0 0.0 0.00 0.00 0.00 99 1015.9
20260506104606 15 231 0.0 0.0 0.00 0.00 0.00 99 1015.9
20260506104102 15 231 0.0 0.0 0.00 0.00 0.00 99 1015.9
20260506103600 15 231 0.0 0.0 0.00 0.00 0.00 99 1015.9
20260506103056 15 231 0.0 0.0 0.00 0.00 0.00 99 1015.9
20260506102555 15 231 0.0 0.0 0.00 0.00 0.00 99 1015.6
20260506102052 15 231 0.0 0.0 0.00 0.00 0.00 99 1015.6
20260506101548 15 231 0.0 0.0 0.00 0.00 0.00 99 1015.6
20260506101045 15 231 0.0 0.0 0.00 0.00 0.00 99 1015.9
20260506100544 15 231 0.0 0.0 0.00 0.00 0.00 99 1015.9
20260506100041 15 231 0.0 0.0 0.00 0.00 0.00 99 1015.9
20260506095540 15 231 0.0 0.0 0.00 0.00 0.00 99 1015.6
20260506095036 15 228 0.0 0.0 0.00 0.00 0.00 98 1015.6
20260506094534 15 228 0.0 0.0 0.00 0.00 0.00 98 1015.6
20260506094032 15 228 0.0 0.0 0.00 0.00 0.00 98 1015.6
20260506093530 15 228 0.0 0.0 0.00 0.00 0.00 98 1015.6
20260506093027 15 228 0.0 0.0 0.00 0.00 0.00 98 1015.6
20260506092525 15 240 0.0 0.0 0.00 0.00 0.00 98 1015.6
20260506092021 15 240 0.0 0.0 0.00 0.00 0.00 98 1015.6
20260506091520 15 242 0.0 0.0 0.00 0.00 0.00 98 1015.6
20260506091016 15 240 0.0 0.0 0.00 0.00 0.00 98 1015.9
20260506090514 15 240 0.0 0.0 0.00 0.00 0.00 97 1015.9
20260506090010 15 240 0.0 0.0 0.00 0.00 0.00 98 1015.9
20260506085507 15 240 0.0 0.0 0.00 0.00 0.00 97 1015.9
20260506085004 15 240 0.0 0.0 0.00 0.00 0.00 97 1015.9
20260506084501 15 240 0.0 0.0 0.00 0.00 0.00 97 1015.9
20260506083956 15 240 0.0 0.0 0.00 0.00 0.00 97 1015.9
20260506083454 15 240 0.0 0.0 0.00 0.00 0.00 98 1015.9
20260506082951 15 240 0.0 0.0 0.00 0.00 0.00 98 1015.9
20260506082448 15 240 0.0 0.0 0.00 0.00 0.00 98 1015.9
20260506081944 15 240 0.0 0.0 0.00 0.00 0.00 98 1015.9
20260506081442 15 240 0.0 0.0 0.00 0.00 0.00 98 1015.9
20260506080939 15 240 0.0 0.0 0.00 0.00 0.00 98 1015.9
20260506080436 15 228 0.0 0.0 0.00 0.00 0.00 98 1015.9
20260506073420 15 228 0.0 0.0 0.00 0.00 0.00 97 1015.6
20260506072918 15 228 0.0 0.0 0.00 0.00 0.00 97 1015.6
20260506072414 15 228 0.0 0.0 0.00 0.00 0.00 97 1015.6
20260506071912 15 228 0.0 0.0 0.00 0.00 0.00 97 1015.6
20260506071410 15 228 0.0 0.0 0.00 0.00 0.00 96 1015.6
20260506070907 15 228 0.0 0.0 0.00 0.00 0.00 97 1015.6
20260506070403 15 228 0.0 0.0 0.00 0.00 0.00 96 1015.6
20260506062341 15 232 0.0 0.0 0.00 0.00 0.00 95 1015.9
20260506061837 15 232 0.0 0.0 0.00 0.00 0.00 95 1015.9
20260506061333 15 228 0.0 0.0 0.00 0.00 0.00 95 1015.9
20260506060832 15 228 0.0 0.0 0.00 0.00 0.00 95 1015.9
20260506060329 15 228 0.0 0.0 0.00 0.00 0.00 95 1015.9
20260506051301 15 222 0.0 0.0 0.00 0.00 0.00 93 1016.6
20260506050759 15 222 0.0 0.0 0.00 0.00 0.00 93 1016.6
20260506050256 15 222 0.0 0.0 0.00 0.00 0.00 93 1016.6
20260506044747 16 222 0.0 0.0 0.00 0.00 0.00 92 1016.6
20260506044244 16 222 0.0 0.0 0.00 0.00 0.00 92 1016.9
20260506043741 16 222 0.0 0.0 0.00 0.00 0.00 91 1016.9
20260506043239 16 222 0.0 0.0 0.00 0.00 0.00 91 1016.9
20260506042737 16 222 0.0 0.0 0.00 0.00 0.00 91 1016.9
20260506042236 16 240 0.0 0.0 0.00 0.00 0.00 90 1016.9
20260506041734 16 240 0.0 0.0 0.00 0.00 0.00 90 1016.9
20260506041230 16 240 0.0 0.0 0.00 0.00 0.00 90 1016.6
20260506040728 16 244 0.0 0.0 0.00 0.00 0.00 89 1016.6
20260506040225 16 246 0.0 0.0 0.00 0.00 0.00 89 1016.6
20260506035721 16 246 0.0 0.0 0.00 0.00 0.00 88 1016.6
20260506035219 16 246 0.0 0.0 0.00 0.00 0.00 88 1016.6
20260506034715 16 246 0.0 0.0 0.00 0.00 0.00 88 1016.6
20260506034212 16 246 0.0 0.0 0.00 0.00 0.00 88 1016.6
20260506033710 16 240 0.0 0.0 0.00 0.00 0.00 88 1016.6
20260506033206 16 240 0.0 0.0 0.00 0.00 0.00 88 1016.6
20260506032703 16 242 0.0 0.0 0.00 0.00 0.00 87 1016.6
20260506032201 16 240 0.0 0.0 0.00 0.00 0.00 87 1016.6
20260506031657 16 252 0.0 0.0 0.00 0.00 0.00 86 1016.6
20260506031154 16 252 0.0 0.0 0.00 0.00 0.00 86 1016.6
20260506030653 17 252 0.0 0.0 0.00 0.00 0.00 86 1016.6
20260506030150 17 252 0.0 0.0 0.00 0.00 0.00 86 1016.6
20260506025646 17 234 0.0 0.0 0.00 0.00 0.00 86 1016.6
20260506025142 17 232 0.0 0.0 0.00 0.00 0.00 85 1016.6
20260506024640 17 240 0.0 0.0 0.00 0.00 0.00 85 1016.6
20260506024136 17 240 0.0 0.0 0.00 0.00 0.00 85 1016.9
20260506023633 17 240 0.0 0.0 0.00 0.00 0.00 85 1016.9
20260506023130 17 240 0.0 0.0 0.00 0.00 0.00 84 1016.9
20260506022627 17 240 0.0 0.0 0.00 0.00 0.00 84 1016.9
20260506022125 17 240 0.0 0.0 0.00 0.00 0.00 84 1016.9
20260506021622 17 240 0.0 0.0 0.00 0.00 0.00 84 1016.9
20260506021119 17 240 0.0 0.0 0.00 0.00 0.00 82 1016.9
20260506020616 17 240 0.0 0.0 0.00 0.00 0.00 82 1016.9
20260506020114 18 240 0.0 0.0 0.00 0.00 0.00 82 1016.9
20260506015611 18 240 0.0 0.0 0.00 0.00 0.00 81 1016.9
20260506015108 18 264 0.0 0.0 0.00 0.00 0.00 81 1016.9
20260506014606 18 276 0.0 0.0 0.00 0.00 0.00 81 1016.9
20260506014101 18 262 0.0 0.0 0.00 0.00 0.00 80 1016.2
20260506013559 18 138 0.0 0.0 0.00 0.00 0.00 81 1016.2
20260506013056 18 192 0.0 0.0 0.00 0.00 0.00 81 1016.2
20260506012552 18 216 0.0 0.0 0.00 0.00 0.00 80 1016.6
20260506012048 18 255 0.0 0.0 0.00 0.00 0.00 80 1016.6
20260506011547 18 258 0.0 0.0 0.00 0.00 0.00 79 1016.6
20260506011042 19 191 0.0 0.0 0.00 0.00 0.00 78 1016.6
20260506010536 19 191 0.0 0.0 0.00 0.00 0.00 77 1016.6
20260506010032 19 191 0.0 0.0 0.00 0.00 0.00 76 1016.6
20260506005529 19 191 0.0 0.0 0.00 0.00 0.00 76 1016.2
20260506005025 20 186 0.0 0.0 0.00 0.00 0.00 76 1016.2
20260506004523 20 132 0.0 0.0 0.00 0.00 0.00 75 1016.2
20260506004019 20 174 0.0 0.0 0.00 0.00 0.00 74 1016.6
20260506003516 20 150 0.0 0.0 0.00 0.00 0.00 73 1016.6
20260506003012 20 144 0.0 0.0 0.00 0.00 0.00 72 1016.6
20260506002508 20 174 0.0 0.0 0.00 0.00 0.00 71 1016.6
20260506002004 20 170 0.0 0.0 0.00 0.00 0.00 70 1016.6